TimeMST,TemperatureF,Dew PointF,Humidity,Sea Level PressureIn,VisibilityMPH,Wind Direction,Wind SpeedMPH,Gust SpeedMPH,PrecipitationIn,Events,Conditions,WindDirDegrees,DateUTC
12:53 AM,32.0,25.0,75,30.25,10.0,East,3.5,-,N/A,,Clear,100,2012-11-20 07:53:00
1:53 AM,30.0,24.1,79,30.23,10.0,Calm,Calm,-,N/A,,Clear,0,2012-11-20 08:53:00
2:53 AM,28.9,24.1,82,30.25,10.0,East,3.5,-,N/A,,Clear,80,2012-11-20 09:53:00
3:53 AM,32.0,25.0,75,30.23,10.0,SW,5.8,-,N/A,,Clear,220,2012-11-20 10:53:00
5:53 AM,28.9,23.0,78,30.26,10.0,Calm,Calm,-,N/A,,Clear,0,2012-11-20 12:53:00
6:53 AM,30.0,23.0,75,30.25,10.0,Calm,Calm,-,N/A,,Clear,0,2012-11-20 13:53:00
7:53 AM,28.0,24.1,85,30.27,10.0,South,3.5,-,N/A,,Clear,170,2012-11-20 14:53:00
8:53 AM,39.9,28.9,65,30.24,10.0,East,3.5,-,N/A,,Clear,90,2012-11-20 15:53:00
9:53 AM,48.9,26.1,41,30.21,-9999.0,North,-9999.0,-,N/A,,Clear,0,2012-11-20 16:53:00
10:53 AM,55.9,30.0,37,30.18,7.0,North,-9999.0,-,N/A,,Unknown,0,2012-11-20 17:53:00
12:53 PM,60.1,28.0,30,30.12,10.0,SW,18.4,25.3,N/A,,Clear,220,2012-11-20 19:53:00
1:53 PM,61.0,27.0,27,30.09,10.0,SSW,15.0,26.5,N/A,,Clear,210,2012-11-20 20:53:00
2:53 PM,61.0,25.0,25,30.08,10.0,SSW,17.3,21.9,N/A,,Clear,210,2012-11-20 21:53:00
3:53 PM,59.0,25.0,27,30.07,10.0,SSW,17.3,25.3,N/A,,Clear,210,2012-11-20 22:53:00
4:53 PM,55.0,25.0,31,30.10,10.0,SW,10.4,-,N/A,,Clear,220,2012-11-20 23:53:00
5:53 PM,50.0,23.0,35,30.11,10.0,SW,9.2,-,N/A,,Clear,220,2012-11-21 00:53:00
6:53 PM,48.0,21.9,36,30.12,10.0,SW,5.8,-,N/A,,Clear,220,2012-11-21 01:53:00
7:53 PM,46.9,21.9,37,30.13,10.0,SW,3.5,-,N/A,,Clear,230,2012-11-21 02:53:00
8:53 PM,39.9,21.9,49,30.13,10.0,ENE,6.9,-,N/A,,Clear,60,2012-11-21 03:53:00
9:53 PM,37.9,21.0,51,30.10,10.0,NNE,5.8,-,N/A,,Clear,20,2012-11-21 04:53:00
10:53 PM,35.1,21.9,59,30.09,10.0,Calm,Calm,-,N/A,,Clear,0,2012-11-21 05:53:00
11:53 PM,39.9,25.0,55,30.06,10.0,SSW,10.4,-,N/A,,Clear,200,2012-11-21 06:53:00